This is the latest recevied weather packets stored in our database for station/object DO1SN-13. If no packets are shown the sender has not sent any weather packets the latest 10 day(s).
| Time | Temp. | Humidity | Pressure | Rain* | Wind** | Luminosity | Snow |
|---|---|---|---|---|---|---|---|
| 1787407423 | 23.89° C | - | 1022.6 hPa | 0 mm | - | - | - |
| 1787407059 | 26.11° C | - | 1022.6 hPa | 0 mm | - | - | - |
| 1787406695 | 25.56° C | - | 1022.6 hPa | 0 mm | - | - | - |
| 1787406330 | 25.56° C | - | 1022.5 hPa | 0 mm | - | - | - |
| 1787405966 | 22.22° C | - | 1022.5 hPa | 0 mm | - | - | - |
| 1787405602 | 22.22° C | - | 1022.6 hPa | 0 mm | - | - | - |
| 1787405238 | 22.78° C | - | 1022.6 hPa | 0 mm | - | - | - |
| 1787404874 | 23.89° C | - | 1022.4 hPa | 0 mm | - | - | - |
| 1787404509 | 23.33° C | - | 1022.6 hPa | 0 mm | - | - | - |
| 1787404145 | 24.44° C | - | 1022.4 hPa | 0 mm | - | - | - |
| 1787403781 | 23.89° C | - | 1022.3 hPa | 0 mm | - | - | - |
| 1787403415 | 25.56° C | - | 1022.4 hPa | 0 mm | - | - | - |
| 1787403051 | 23.33° C | - | 1022.3 hPa | 0 mm | - | - | - |
| 1787402687 | 24.44° C | - | 1022.3 hPa | 0 mm | - | - | - |
| 1787402320 | 23.33° C | - | 1022.3 hPa | 0 mm | - | - | - |
| 1787401956 | 22.78° C | - | 1022.2 hPa | 0 mm | - | - | - |
| 1787401592 | 22.22° C | - | 1022.2 hPa | 0 mm | - | - | - |
| 1787401227 | 22.22° C | - | 1022.3 hPa | 0 mm | - | - | - |
| 1787400863 | 22.22° C | - | 1022.1 hPa | 0 mm | - | - | - |
| 1787400499 | 22.78° C | - | 1022 hPa | 0 mm | - | - | - |
| 1787400135 | 25.56° C | - | 1022.1 hPa | 0 mm | - | - | - |
| 1787399771 | 23.33° C | - | 1022 hPa | 0 mm | - | - | - |
| 1787399407 | 23.33° C | - | 1021.9 hPa | 0 mm | - | - | - |
| 1787399042 | 24.44° C | - | 1021.7 hPa | 0 mm | - | - | - |
| 1787398678 | 25° C | - | 1021.8 hPa | 0 mm | - | - | - |
* Rain latest hour (hover to see other rain measurements)
** Current wind speed in m/s (hover to see current wind gust speed)